Location: Fort Wayne
(41.1310°N, 85.1290°W)
Time: 23:15:21
(UTC-04:00)

COSMOS 2406 - Visible Passes

Search period start: 19 April 2014 00:00
Search period end: 29 April 2014 00:00
Orbit: 845 x 864 km, 71.0° (Epoch: 19 April)

Date Brightness Start Highest point End Pass type
(mag) Time Alt. Az. Time Alt. Az. Time Alt. Az.
19 Apr 5.0 21:48:34 10° N 21:52:08 17° NE 21:54:29 13° ENE visible
19 Apr 3.3 23:31:29 10° NNW 23:36:35 71° NW 23:36:35 71° NW visible
20 Apr 5.0 21:37:25 10° N 21:41:02 17° NE 21:43:50 12° E visible
20 Apr 3.2 23:20:22 10° NNW 23:25:56 81° W 23:25:56 81° W visible
21 Apr 5.0 21:26:15 10° N 21:29:56 17° NE 21:33:13 11° E visible
21 Apr 3.1 23:09:14 10° NNW 23:14:58 81° WSW 23:15:19 77° SSW visible
22 Apr 5.0 21:15:06 10° N 21:18:50 18° NE 21:22:34 10° E visible
22 Apr 3.2 22:58:07 10° NNW 23:03:51 80° WSW 23:04:44 64° S visible
23 Apr 4.9 21:03:56 10° N 21:07:44 18° NE 21:11:31 10° E visible
23 Apr 3.2 22:47:00 10° NNW 22:52:44 78° WSW 22:54:11 52° S visible
24 Apr 4.9 20:52:47 10° N 20:56:37 18° NE 21:00:28 10° E visible
24 Apr 3.3 22:35:53 10° NNW 22:41:36 77° WSW 22:43:41 41° S visible
25 Apr 3.3 22:24:45 10° NNW 22:30:29 75° WSW 22:33:14 32° S visible
26 Apr 3.3 22:13:38 10° NNW 22:19:21 74° WSW 22:22:50 25° S visible
27 Apr 3.4 22:02:31 10° NNW 22:08:13 72° WSW 22:12:29 19° SSE visible
28 Apr 3.5 21:51:23 10° NNW 21:57:06 71° WSW 22:02:11 13° SSE visible
